sat.trackr.live / text

‹ back to catalog

SDA_1666

NORAD 65976 · 2025-230C

PAYLOAD ACTIVE UNKNOWN

§ Identity

Operator
Country
US
Launch date
2025-10-15
Launch site
AFWTR
Launch vehicle
Mass (kg)
RCS (m²)

External: N2YO · Heavens-Above · Gunter

§ Orbital elements

Epoch: 2026-05-24T15:46:11.820864Z

Period
104.12 min
Inclination
81.2981°
Eccentricity
0.0001231
Mean motion
13.83052566 rev/d
Perigee alt
952.2 km
Apogee alt
954.0 km
Semi-major
7,331.2 km
B*
-6.1941e-3
RAAN
233.6607°
Arg perigee
189.4690°
Mean anomaly
170.6443°
Rev number
3,054

§ Raw data

SDA_16661 65976U 25230C   26144.65708126 -.00006750  00000+0 -61941-2 0  99992 65976  81.2981 233.6607 0001231 189.4690 170.6443 13.83052566 30541

JSON: /api/v1/satellites/65976 · /tle

For live sub-satellite position, see the globe view (requires WebGL).

§ Visibility from observer

Set your observer location to see the next 7 days of passes ≥ 10°. The values pass through the URL so the page stays shareable.

No JS? Fill the form by hand. The geolocation button needs JavaScript.